Погода в Сисакете

Таиланд     15°06′43″N   104°19′48″E
темп.,
°C
ветер,
м/с
пор.,
м/с
влажн.,
%
обл.,
%
осадки,
мм/ч
давл.,
гПа
погр.,
м
17 мая, вт
вт1701:00+24ююв0189100 1.9 1010117
04:00+24св349277 0.1 1008258
07:00+24ссв338695 0.1 1010281
10:00+28св227171 0.2 1011898
13:00+30ссв326377 3.8 10091157
16:00+30всв436588 1.2 1007971
19:00+26в3683100 1.3 1008288
22:00+26в248591 0.0 1010208
18 мая, ср
ср1801:00+25вюв128785 0.4 1009102
04:00+25всв1187100 0.0 100952
07:00+25св228799 0.6 1011120
10:00+27св3375100 2.0 1011510
13:00+31юз1160100 5.9 10091315
16:00+30ююв1164100 4.9 1007825
19:00+27ю348192 7.7 1009137
22:00+26ю358395 0.9 1011149
19 мая, чт
чт1901:00+25ююз498986 1.9 1010346
04:00+24ююз369194 0.1 1009257
07:00+25ю2487100 0.2 1011196
10:00+29ююз346796 0.0 1011749
13:00+30юз456561 0.1 1009823
16:00+31юз456196 2.9 10071259
19:00+28ююз377784 3.8 1008193
22:00+27ююз398295 0.0 1009305
20 мая, пт
пт2001:00+26ююз3108494 0.0 1008380
04:00+26ююз3984100 0.0 1008366
07:00+25ююз3884100 0.0 1009348
10:00+27юз467799 0.0 1010460
13:00+31юз5659100 2.6 10071440
16:00+30зюз6763100 2.9 10051100
19:00+27ююз498194 3.9 1006415
22:00+26ююз3983100 0.0 1008517
21 мая, сб
сб2101:00+25ююз41190100 0.1 1006620
04:00+24ююз41190100 1.2 1006579
07:00+24ююз41095100 6.4 1007511
10:00+25ююз4988100 6.7 1007553
13:00+27юз587898 7.1 1005943
16:00+27ююз5881100 3.6 1004516
19:00+25ю4989100 4.1 1005490
22:00+25ююз41189100 0.0 1007529